Location: Newark
(46.7000°N, 60.6000°W)
Time: 05:39:23
(UTC+00:00)

Transit 2A Rocket - Pass Details

Date: 05 November 2020
Orbit: 588 x 914 km, 66.7° (Epoch: 29 November)

Event Time Altitude Azimuth Distance (km) Brightness Sun altitude
Rises 17:04:29 0° 324° (NW) 3,397 8.0 24.9°
Reaches altitude 10° 17:10:16 10° 10° (N) 2,350 7.0 24.5°
Maximum altitude 17:10:33 10° 13° (NNE) 2,341 7.0 24.5°
Drops below altitude 10° 17:10:50 10° 16° (NNE) 2,337 7.0 24.5°
Sets 17:16:15 0° 63° (ENE) 3,140 7.7 24.1°
